Regional Weather Roundup
Issued by NWS

Home | Current Version | Previous Version | Text Only | Print | Product List | Glossary On
Versions: 1 2 3 4 5 6 7 8 9 10 11 12 13 14 15 16 17 18 19 20 21 22 23 24 25 26 27 28 29 30 31 32 33 34 35 36 37 38 39 40 41 42 43 44 45 46 47 48 49 50
000
ASUS43 KDTX 210310
RWRMI
MICHIGAN HOURLY REGIONAL WEATHER ROUNDUP
NATIONAL WEATHER SERVICE DETROIT/PONTIAC MI
1100 PM EDT SUN APR 20 2014

NOTE: "FAIR" INDICATES FEW OR NO CLOUDS BELOW 12,000 FEET WITH NO
SIGNIFICANT WEATHER AND/OR OBSTRUCTION TO VISIBILITY.

MIZ047>049-052>055-059>063-066>070-074>076-081>083-210400-
SOUTHEAST LOWER MICHIGAN

CITY           SKY/WX    TMP DP  RH WIND       PRES   REMARKS
ADRIAN         PTCLDY    55  37  50 SE3       30.13S
ALMA           MOCLDY    58  37  44 S3        30.08F
ANN ARBOR      PTCLDY    53  33  46 S3        30.12F
BAD AXE        CLOUDY    58  39  49 S3        30.10S
DETROIT CITY   PTCLDY    56  33  42 S6        30.12F
DETROIT        PTCLDY    51  34  52 S6        30.14S
FLINT          CLEAR     58  27  30 S5        30.10S
GROSSE ILE     PTCLDY    46  43  87 SW3       30.12S
HILLSDALE      PTCLDY    56  31  38 CALM      30.12S
HOWELL         CLEAR     58  26  29 S3        30.10S

CITY           SKY/WX    TMP DP  RH WIND       PRES   REMARKS
JACKSON        CLEAR     54  29  38 CALM      30.11F
LAMBERTVILLE   PTCLDY    50  39  66 CALM      30.13S
LANSING        PTCLDY    61  31  32 S6        30.10F
LAPEER         NOT AVBL
MASON          CLEAR     53  34  48 CALM      30.11S
MONROE         PTCLDY    50  37  62 CALM      30.12S
MT. CLEMENS    CLOUDY    46  36  68 S6        30.11F
PONTIAC        MOCLDY    59  35  40 S6        30.11F
PORT HOPE        N/A     55  41  59 CALM      30.07F
PORT HURON     PTCLDY    54  37  54 S5        30.12F
TRI CITIES     MOCLDY    65  33  30 S5        30.08F
YPSILANTI      PTCLDY    52  34  50 S7        30.13F
$$
MIZ043>046-050>051-056>058-064>065-071>073-077>080-210400-
SOUTHWEST LOWER MICHIGAN

CITY           SKY/WX    TMP DP  RH WIND       PRES   REMARKS
BATTLE CREEK   PTCLDY    56  36  47 S8        30.10F
BENTON HARBOR  PTCLDY    60  34  37 SE7       30.06F
BIG RAPIDS     CLOUDY    62  38  42 CALM      30.06S
COLDWATER      PTCLDY    51  39  64 CALM      30.11S
HOLLAND        PTCLDY    59  40  49 S8        30.06F
GRAND RAPIDS   PTCLDY    59  36  42 S8        30.07F
KALAMAZOO      CLEAR     58  32  37 S7        30.08F
MARSHALL       CLEAR     50  40  68 S3        30.10F
MUSKEGON       MOCLDY    60  39  45 SE7       30.04F
$$
MIZ016>042-210400-
NORTHERN LOWER MICHIGAN

CITY           SKY/WX    TMP DP  RH WIND       PRES   REMARKS
ALPENA         CLOUDY    47  38  71 CALM      30.05S
BEAVER ISLAND  CLOUDY    39  38  94 CALM      30.05F FOG
BELLAIRE       CLOUDY    51  46  83 CALM      30.03F
CADILLAC       LGT RAIN  55  47  74 CALM      30.06F
CHARLEVOIX     CLOUDY    45  36  71 CALM      30.08F
FRANKFORT      CLOUDY    52  38  60 NW7       30.04F
GAYLORD        CLOUDY    52  41  66 S5        30.04F
GRAYLING       CLOUDY    60  38  45 SW8       30.07F
HARBOR SPRINGS DRIZZLE   44  42  89 NE5       30.05F
HOUGHTON LAKE  LGT RAIN  52  49  89 SE5       30.07F
MANISTEE       CLOUDY    55  45  67 CALM      30.05F
OSCODA         CLOUDY    55  31  40 SW8       30.06F
PELLSTON       LGT RAIN  45  42  89 CALM      30.07F
TRAVERSE CITY  CLOUDY    60  42  51 CALM      30.03F
$$
MIZ007>008-015-210400-
EASTERN UPPER MICHIGAN

CITY           SKY/WX    TMP DP  RH WIND       PRES   REMARKS
KINROSS        CLOUDY    37  37 100 SE5       30.06F
MACKINAC ISLAN CLOUDY    38  38 100 CALM      30.06F FOG
NEWBERRY       CLEAR     34  33  96 S7        30.03F FOG
S. S. MARIE    CLOUDY    38  36  92 CALM      30.05F FOG
$$
MIZ004>006-011>014-085-210400-
CENTRAL UPPER MICHIGAN

CITY           SKY/WX    TMP DP  RH WIND       PRES   REMARKS
MANISTIQUE     PTCLDY    35  33  94 S6        30.03F FOG
ESCANABA       CLOUDY    39  36  87 CALM      30.02F
MENOMINEE      CLOUDY    48  45  87 CALM      30.01S
SAWYER-GWINN   CLEAR     45  43  92 CALM      30.01F
$$
MIZ001>003-009>011-084-210400-
WESTERN UPPER MICHIGAN

CITY           SKY/WX    TMP DP  RH WIND       PRES   REMARKS
IRON MOUNTAIN  CLEAR     45  43  93 CALM      29.99F FOG
HOUGHTON       CLEAR     34  32  92 CALM      30.00F
COPPER HARBOR    N/A     41  35  79 VRB3      29.99F
IRONWOOD       CLEAR     41  30  65 CALM      29.98F
$$

ABBREVIATIONS USED IN REMARKS
   TC - TEMPERATURE IN CELSIUS
  WCI - WIND CHILL INDEX
   HX - HEAT INDEX
  VSB - VISIBILITY




USA.gov is the U.S. government's official web portal to all federal, state and local government web resources and services.